| time (UTC) | temp C | wind direction | speed KPH | gust KPH | rain 1hr cm | rain 24hr cm | rain mn cm | humidity % | barometer mb |
| 20260504050006 | 11 | 71 | 4.8 | 6.4 | 0.00 | 0.00 | 0.00 | 69 | 1022.1 |
| 20260504045406 | 11 | 67 | 4.8 | 6.4 | 0.00 | 0.00 | 0.00 | 75 | 1021.9 |
| 20260504044516 | 11 | 61 | 4.8 | 6.4 | 0.00 | 0.00 | 0.00 | 84 | 1021.9 |
| 20260504043604 | 11 | 68 | 4.8 | 6.4 | 0.00 | 0.00 | 0.00 | 85 | 1022.0 |
| 20260504042705 | 11 | 72 | 4.8 | 6.4 | 0.00 | 0.00 | 0.00 | 82 | 1021.8 |
| 20260504041804 | 11 | 73 | 4.8 | 6.4 | 0.00 | 0.00 | 0.00 | 76 | 1022.1 |
| 20260504040904 | 11 | 65 | 4.8 | 6.4 | 0.00 | 0.00 | 0.00 | 68 | 1021.8 |
| 20260504040005 | 11 | 80 | 4.8 | 6.4 | 0.00 | 0.00 | 0.00 | 68 | 1021.8 |
| 20260504035405 | 11 | 82 | 4.8 | 6.4 | 0.00 | 0.00 | 0.00 | 67 | 1021.6 |
| 20260504034525 | 11 | 78 | 3.2 | 8.0 | 0.00 | 0.00 | 0.00 | 64 | 1021.4 |
| 20260504033605 | 11 | 64 | 1.6 | 6.4 | 0.00 | 0.00 | 0.00 | 61 | 1021.8 |
| 20260504032704 | 12 | 72 | 4.8 | 9.7 | 0.00 | 0.00 | 0.00 | 59 | 1021.6 |
| 20260504031808 | 12 | 65 | 4.8 | 6.4 | 0.00 | 0.00 | 0.00 | 59 | 1021.6 |
| 20260504030904 | 12 | 65 | 3.2 | 8.0 | 0.00 | 0.00 | 0.00 | 61 | 1021.4 |
| 20260504030004 | 12 | 66 | 4.8 | 6.4 | 0.00 | 0.00 | 0.00 | 63 | 1021.5 |
| 20260504025405 | 12 | 53 | 3.2 | 8.0 | 0.00 | 0.00 | 0.00 | 62 | 1021.4 |
| 20260504024506 | 12 | 50 | 3.2 | 8.0 | 0.00 | 0.00 | 0.00 | 61 | 1021.6 |
| 20260504023605 | 12 | 65 | 4.8 | 8.0 | 0.00 | 0.00 | 0.00 | 61 | 1021.8 |
| 20260504022704 | 12 | 27 | 3.2 | 6.4 | 0.00 | 0.00 | 0.00 | 51 | 1021.6 |
| 20260504021804 | 12 | 43 | 3.2 | 6.4 | 0.00 | 0.00 | 0.00 | 56 | 1021.6 |
| 20260504020904 | 12 | 30 | 3.2 | 6.4 | 0.00 | 0.00 | 0.00 | 56 | 1021.8 |
| 20260504020006 | 12 | 45 | 1.6 | 6.4 | 0.00 | 0.00 | 0.00 | 54 | 1021.8 |
| 20260504015405 | 12 | 69 | 1.6 | 4.8 | 0.00 | 0.00 | 0.00 | 57 | 1021.5 |
| 20260504014525 | 12 | 29 | 3.2 | 8.0 | 0.00 | 0.00 | 0.00 | 61 | 1021.6 |
| 20260504013604 | 12 | 47 | 4.8 | 9.7 | 0.00 | 0.00 | 0.00 | 63 | 1021.6 |
| 20260504011805 | 12 | 46 | 4.8 | 8.0 | 0.00 | 0.00 | 0.00 | 63 | 1021.5 |
| 20260504010906 | 11 | 46 | 3.2 | 6.4 | 0.00 | 0.00 | 0.00 | 67 | 1021.8 |
| 20260504010004 | 11 | 56 | 1.6 | 3.2 | 0.00 | 0.00 | 0.00 | 63 | 1021.8 |
| 20260504005404 | 11 | 75 | 1.6 | 4.8 | 0.00 | 0.00 | 0.00 | 67 | 1021.6 |
| 20260504004504 | 11 | 50 | 4.8 | 6.4 | 0.00 | 0.00 | 0.00 | 61 | 1021.5 |
| 20260504003625 | 13 | 30 | 4.8 | 6.4 | 0.00 | 0.00 | 0.00 | 51 | 1021.4 |
| 20260504002705 | 13 | 27 | 4.8 | 6.4 | 0.00 | 0.00 | 0.00 | 46 | 1021.4 |
| 20260504001804 | 12 | 25 | 4.8 | 6.4 | 0.00 | 0.00 | 0.00 | 51 | 1021.4 |
| 20260504000905 | 11 | 27 | 3.2 | 6.4 | 0.00 | 0.00 | 0.00 | 69 | 1021.6 |
| 20260504000007 | 11 | 28 | 3.2 | 6.4 | 0.00 | 0.00 | 0.00 | 87 | 1021.8 |
| 20260503235404 | 11 | 24 | 3.2 | 4.8 | 0.00 | 0.00 | 0.00 | 92 | 1021.6 |
| 20260503234525 | 11 | 23 | 3.2 | 4.8 | 0.00 | 0.00 | 0.00 | 92 | 1021.9 |
| 20260503233605 | 11 | 27 | 3.2 | 4.8 | 0.00 | 0.00 | 0.00 | 92 | 1022.1 |
| 20260503232725 | 11 | 27 | 3.2 | 4.8 | 0.00 | 0.00 | 0.00 | 91 | 1022.2 |
| 20260503231804 | 11 | 28 | 3.2 | 4.8 | 0.00 | 0.00 | 0.00 | 91 | 1022.3 |
| 20260503230906 | 11 | 28 | 3.2 | 4.8 | 0.00 | 0.00 | 0.00 | 90 | 1022.3 |
| 20260503230004 | 11 | 27 | 3.2 | 4.8 | 0.00 | 0.00 | 0.00 | 91 | 1022.5 |
| 20260503225416 | 11 | 24 | 3.2 | 4.8 | 0.00 | 0.00 | 0.00 | 91 | 1022.2 |
| 20260503224504 | 11 | 27 | 3.2 | 4.8 | 0.00 | 0.00 | 0.00 | 92 | 1022.6 |
| 20260503223625 | 11 | 25 | 3.2 | 4.8 | 0.00 | 0.00 | 0.00 | 92 | 1022.5 |
| 20260503222719 | 11 | 25 | 3.2 | 4.8 | 0.00 | 0.00 | 0.00 | 92 | 1023.0 |
| 20260503221805 | 11 | 26 | 3.2 | 4.8 | 0.00 | 0.00 | 0.00 | 92 | 1022.5 |
| 20260503220904 | 11 | 28 | 3.2 | 4.8 | 0.00 | 0.00 | 0.00 | 92 | 1022.8 |
| 20260503220026 | 11 | 23 | 3.2 | 4.8 | 0.00 | 0.00 | 0.00 | 92 | 1022.5 |
| 20260503215404 | 11 | 32 | 3.2 | 4.8 | 0.00 | 0.00 | 0.00 | 92 | 1022.6 |
| 20260503214505 | 11 | 31 | 3.2 | 4.8 | 0.00 | 0.00 | 0.00 | 92 | 1022.7 |
| 20260503213605 | 11 | 32 | 3.2 | 6.4 | 0.00 | 0.00 | 0.00 | 93 | 1022.4 |
| 20260503212726 | 11 | 25 | 3.2 | 4.8 | 0.00 | 0.00 | 0.00 | 93 | 1022.6 |
| 20260503211805 | 11 | 23 | 3.2 | 4.8 | 0.00 | 0.00 | 0.00 | 94 | 1022.4 |
| 20260503210904 | 11 | 33 | 3.2 | 4.8 | 0.00 | 0.00 | 0.00 | 94 | 1022.4 |
| 20260503210006 | 11 | 30 | 3.2 | 4.8 | 0.00 | 0.00 | 0.00 | 94 | 1022.5 |
| 20260503205405 | 11 | 24 | 1.6 | 4.8 | 0.00 | 0.00 | 0.00 | 94 | 1022.5 |
| 20260503204505 | 11 | 31 | 1.6 | 3.2 | 0.00 | 0.00 | 0.00 | 94 | 1022.5 |
| 20260503203604 | 11 | 26 | 1.6 | 3.2 | 0.00 | 0.00 | 0.00 | 93 | 1022.6 |
| 20260503202704 | 11 | 13 | 3.2 | 9.7 | 0.00 | 0.00 | 0.00 | 93 | 1022.5 |
| 20260503201827 | 11 | 339 | 4.8 | 9.7 | 0.00 | 0.00 | 0.00 | 93 | 1022.6 |
| 20260503200925 | 11 | 352 | 3.2 | 8.0 | 0.00 | 0.00 | 0.00 | 92 | 1022.5 |
| 20260503200025 | 11 | 14 | 3.2 | 4.8 | 0.00 | 0.00 | 0.00 | 92 | 1022.5 |
| 20260503195425 | 11 | 12 | 3.2 | 4.8 | 0.00 | 0.00 | 0.00 | 92 | 1022.3 |
| 20260503194526 | 11 | 34 | 3.2 | 4.8 | 0.00 | 0.00 | 0.00 | 91 | 1022.2 |
| 20260503193605 | 11 | 16 | 1.6 | 4.8 | 0.00 | 0.00 | 0.00 | 91 | 1022.4 |
| 20260503192708 | 12 | 36 | 1.6 | 4.8 | 0.00 | 0.00 | 0.00 | 90 | 1022.3 |
| 20260503191819 | 12 | 340 | 4.8 | 9.7 | 0.00 | 0.00 | 0.00 | 90 | 1022.2 |
| 20260503190907 | 12 | 331 | 4.8 | 9.7 | 0.00 | 0.00 | 0.00 | 89 | 1022.1 |
| 20260503190004 | 12 | 17 | 1.6 | 6.4 | 0.00 | 0.00 | 0.00 | 89 | 1021.9 |
| 20260503185404 | 12 | 17 | 1.6 | 4.8 | 0.00 | 0.00 | 0.00 | 88 | 1021.9 |
| 20260503184504 | 12 | 37 | 1.6 | 4.8 | 0.00 | 0.00 | 0.00 | 87 | 1021.9 |
| 20260503183605 | 12 | 8 | 1.6 | 8.0 | 0.00 | 0.00 | 0.00 | 86 | 1021.6 |
| 20260503182719 | 13 | 280 | 4.8 | 11.3 | 0.00 | 0.00 | 0.00 | 86 | 1021.9 |
| 20260503181806 | 13 | 296 | 6.4 | 14.5 | 0.00 | 0.00 | 0.00 | 84 | 1021.9 |
| 20260503180906 | 13 | 280 | 9.7 | 16.1 | 0.00 | 0.00 | 0.00 | 84 | 1021.9 |
| 20260503180004 | 13 | 275 | 11.3 | 17.7 | 0.00 | 0.00 | 0.00 | 83 | 1021.8 |
| 20260503175404 | 13 | 270 | 9.7 | 17.7 | 0.00 | 0.00 | 0.00 | 82 | 1021.8 |
| 20260503174504 | 14 | 294 | 8.0 | 19.3 | 0.00 | 0.00 | 0.00 | 79 | 1021.8 |
| 20260503173605 | 15 | 281 | 11.3 | 17.7 | 0.00 | 0.00 | 0.00 | 68 | 1021.6 |
| 20260503172746 | 16 | 277 | 9.7 | 17.7 | 0.00 | 0.00 | 0.00 | 61 | 1021.4 |
| 20260503171804 | 16 | 289 | 6.4 | 12.9 | 0.00 | 0.00 | 0.00 | 59 | 1021.2 |
| 20260503170904 | 17 | 291 | 4.8 | 9.7 | 0.00 | 0.00 | 0.00 | 57 | 1021.2 |
| 20260503150904 | 17 | 356 | 4.8 | 19.3 | 0.00 | 0.00 | 0.00 | 52 | 1021.9 |
| 20260503130904 | 17 | 273 | 11.3 | 27.4 | 0.00 | 0.00 | 0.00 | 57 | 1023.0 |
| 20260503080924 | 15 | 345 | 4.8 | 14.5 | 0.00 | 0.00 | 0.00 | 54 | 1023.7 |
| 20260503072703 | 14 | 332 | 4.8 | 9.7 | 0.00 | 0.00 | 0.00 | 58 | 1023.9 |
| 20260503071804 | 14 | 5 | 3.2 | 12.9 | 0.00 | 0.00 | 0.00 | 58 | 1023.8 |
| 20260503070905 | 14 | 9 | 4.8 | 16.1 | 0.00 | 0.00 | 0.00 | 59 | 1023.8 |